Time,TemperatureF,DewpointF,PressureIn,WindDirection,WindDirectionDegrees,WindSpeedMPH,WindSpeedGustMPH,Humidity,HourlyPrecipIn,Conditions,Clouds,dailyrainin,SoftwareType,DateUTC
2013-08-19 00:02:00,65.1,57.0,30.28,West,268,0.0,0.0,75,0.00,,,0.00,VWS V14.00,2013-08-19 04:02:00,
2013-08-19 00:03:00,65.1,57.0,30.28,West,268,0.0,0.0,75,0.00,,,0.00,VWS V14.00,2013-08-19 04:03:00,
2013-08-19 00:04:00,65.1,57.0,30.28,West,269,0.0,0.0,75,0.00,,,0.00,VWS V14.00,2013-08-19 04:04:00,
2013-08-19 00:09:00,64.8,56.7,30.28,West,268,0.0,0.0,75,0.00,,,0.00,VWS V14.00,2013-08-19 04:09:00,
2013-08-19 00:14:00,64.6,56.8,30.28,West,270,0.0,0.0,76,0.00,,,0.00,VWS V14.00,2013-08-19 04:14:00,
2013-08-19 00:17:00,64.6,56.8,30.28,West,269,0.0,0.0,76,0.00,,,0.00,VWS V14.00,2013-08-19 04:17:00,
2013-08-19 00:23:00,64.4,56.7,30.28,West,268,0.0,0.0,76,0.00,,,0.00,VWS V14.00,2013-08-19 04:23:00,
2013-08-19 00:28:00,64.2,56.5,30.28,West,269,0.0,0.0,76,0.00,,,0.00,VWS V14.00,2013-08-19 04:28:00,
2013-08-19 00:33:00,63.9,56.5,30.28,West,268,0.0,0.0,77,0.00,,,0.00,VWS V14.00,2013-08-19 04:33:00,
2013-08-19 00:38:00,63.9,56.5,30.28,West,268,0.0,0.0,77,0.00,,,0.00,VWS V14.00,2013-08-19 04:38:00,
2013-08-19 00:43:00,63.7,56.3,30.28,West,268,0.0,0.0,77,0.00,,,0.00,VWS V14.00,2013-08-19 04:43:00,
2013-08-19 00:49:00,63.3,56.0,30.28,West,268,0.0,0.0,77,0.00,,,0.00,VWS V14.00,2013-08-19 04:49:00,
2013-08-19 00:54:00,63.1,56.2,30.28,West,268,0.0,0.0,78,0.00,,,0.00,VWS V14.00,2013-08-19 04:54:00,
2013-08-19 00:59:00,63.0,56.0,30.28,West,268,0.0,0.0,78,0.00,,,0.00,VWS V14.00,2013-08-19 04:59:00,
2013-08-19 01:05:00,63.0,56.0,30.28,West,268,0.0,0.0,78,0.00,,,0.00,VWS V14.00,2013-08-19 05:05:00,
2013-08-19 01:10:00,62.6,55.7,30.28,West,270,0.0,0.0,78,0.00,,,0.00,VWS V14.00,2013-08-19 05:10:00,
2013-08-19 01:16:00,62.4,55.5,30.28,West,268,0.0,0.0,78,0.00,,,0.00,VWS V14.00,2013-08-19 05:16:00,
2013-08-19 01:21:00,62.2,55.7,30.28,West,270,0.0,0.0,79,0.00,,,0.00,VWS V14.00,2013-08-19 05:21:00,
2013-08-19 01:26:00,62.1,55.5,30.28,West,268,0.0,0.0,79,0.00,,,0.00,VWS V14.00,2013-08-19 05:26:00,
2013-08-19 01:33:00,61.9,55.3,30.28,West,270,0.0,0.0,79,0.00,,,0.00,VWS V14.00,2013-08-19 05:33:00,
2013-08-19 01:38:00,61.7,55.5,30.28,West,269,0.0,0.0,80,0.00,,,0.00,VWS V14.00,2013-08-19 05:38:00,
2013-08-19 01:44:00,61.5,55.3,30.28,West,270,0.0,0.0,80,0.00,,,0.00,VWS V14.00,2013-08-19 05:44:00,
2013-08-19 01:49:00,61.3,55.1,30.28,West,270,0.0,0.0,80,0.00,,,0.00,VWS V14.00,2013-08-19 05:49:00,
2013-08-19 01:55:00,61.3,55.1,30.28,West,269,0.0,0.0,80,0.00,,,0.00,VWS V14.00,2013-08-19 05:55:00,
2013-08-19 02:00:00,61.0,55.1,30.28,West,268,0.0,0.0,81,0.00,,,0.00,VWS V14.00,2013-08-19 06:00:00,
2013-08-19 02:05:00,61.0,55.1,30.28,West,270,0.0,0.0,81,0.00,,,0.00,VWS V14.00,2013-08-19 06:05:00,
2013-08-19 02:11:00,60.6,54.8,30.28,West,270,0.0,0.0,81,0.00,,,0.00,VWS V14.00,2013-08-19 06:11:00,
2013-08-19 02:16:00,60.6,55.1,30.28,West,268,0.0,0.0,82,0.00,,,0.00,VWS V14.00,2013-08-19 06:16:00,
2013-08-19 02:23:00,60.4,54.9,30.28,West,268,0.0,0.0,82,0.00,,,0.00,VWS V14.00,2013-08-19 06:23:00,
2013-08-19 02:28:00,60.4,54.9,30.28,West,269,0.0,0.0,82,0.00,,,0.00,VWS V14.00,2013-08-19 06:28:00,
2013-08-19 02:33:00,60.3,54.8,30.28,West,270,0.0,0.0,82,0.00,,,0.00,VWS V14.00,2013-08-19 06:33:00,
2013-08-19 02:38:00,60.1,54.6,30.28,West,270,0.0,0.0,82,0.00,,,0.00,VWS V14.00,2013-08-19 06:38:00,
2013-08-19 02:43:00,59.9,54.4,30.28,West,268,0.0,0.0,82,0.00,,,0.00,VWS V14.00,2013-08-19 06:43:00,
2013-08-19 02:49:00,59.7,54.6,30.28,West,270,0.0,0.0,83,0.00,,,0.00,VWS V14.00,2013-08-19 06:49:00,
2013-08-19 02:55:00,59.7,54.6,30.28,West,268,0.0,0.0,83,0.00,,,0.00,VWS V14.00,2013-08-19 06:55:00,
2013-08-19 03:00:00,59.5,54.4,30.28,West,269,0.0,0.0,83,0.00,,,0.00,VWS V14.00,2013-08-19 07:00:00,
2013-08-19 03:05:00,59.5,54.4,30.28,West,269,0.0,0.0,83,0.00,,,0.00,VWS V14.00,2013-08-19 07:05:00,
2013-08-19 03:11:00,59.4,54.2,30.28,West,268,0.0,0.0,83,0.00,,,0.00,VWS V14.00,2013-08-19 07:11:00,
2013-08-19 03:16:00,59.2,54.0,30.28,West,270,0.0,0.0,83,0.00,,,0.00,VWS V14.00,2013-08-19 07:16:00,
2013-08-19 03:21:00,59.0,53.8,30.28,West,268,0.0,0.0,83,0.00,,,0.00,VWS V14.00,2013-08-19 07:21:00,
2013-08-19 03:26:00,59.0,53.8,30.28,West,270,0.0,0.0,83,0.00,,,0.00,VWS V14.00,2013-08-19 07:26:00,
2013-08-19 03:31:00,58.8,53.7,30.28,West,268,0.0,0.0,83,0.00,,,0.00,VWS V14.00,2013-08-19 07:31:00,
2013-08-19 03:36:00,58.6,53.5,30.28,West,268,0.0,0.0,83,0.00,,,0.00,VWS V14.00,2013-08-19 07:36:00,
2013-08-19 03:41:00,58.5,53.7,30.28,West,270,0.0,0.0,84,0.00,,,0.00,VWS V14.00,2013-08-19 07:41:00,
2013-08-19 03:47:00,58.3,53.5,30.28,West,269,0.0,0.0,84,0.00,,,0.00,VWS V14.00,2013-08-19 07:47:00,
2013-08-19 03:53:00,58.3,53.5,30.28,West,268,0.0,0.0,84,0.00,,,0.00,VWS V14.00,2013-08-19 07:53:00,
2013-08-19 03:58:00,58.1,53.3,30.28,West,268,0.0,0.0,84,0.00,,,0.00,VWS V14.00,2013-08-19 07:58:00,
2013-08-19 04:04:00,58.1,53.3,30.28,West,270,0.0,0.0,84,0.00,,,0.00,VWS V14.00,2013-08-19 08:04:00,
2013-08-19 04:09:00,57.9,53.4,30.28,West,268,0.0,0.0,85,0.00,,,0.00,VWS V14.00,2013-08-19 08:09:00,
2013-08-19 04:14:00,57.9,53.4,30.28,West,268,0.0,0.0,85,0.00,,,0.00,VWS V14.00,2013-08-19 08:14:00,
2013-08-19 04:20:00,57.9,53.4,30.28,West,269,0.0,0.0,85,0.00,,,0.00,VWS V14.00,2013-08-19 08:20:00,
2013-08-19 04:25:00,57.7,53.6,30.28,West,268,0.0,0.0,86,0.00,,,0.00,VWS V14.00,2013-08-19 08:25:00,
2013-08-19 04:31:00,57.6,53.4,30.28,West,268,0.0,0.0,86,0.00,,,0.00,VWS V14.00,2013-08-19 08:31:00,
2013-08-19 04:36:00,57.6,53.4,30.28,West,268,0.0,0.0,86,0.00,,,0.00,VWS V14.00,2013-08-19 08:36:00,
2013-08-19 04:42:00,57.4,53.2,30.28,West,270,0.0,0.0,86,0.00,,,0.00,VWS V14.00,2013-08-19 08:42:00,
2013-08-19 04:47:00,57.2,53.1,30.28,West,268,0.0,0.0,86,0.00,,,0.00,VWS V14.00,2013-08-19 08:47:00,
2013-08-19 04:52:00,57.2,53.1,30.28,West,270,0.0,0.0,86,0.00,,,0.00,VWS V14.00,2013-08-19 08:52:00,
2013-08-19 04:57:00,57.2,53.1,30.28,West,268,0.0,0.0,86,0.00,,,0.00,VWS V14.00,2013-08-19 08:57:00,
2013-08-19 05:02:00,57.0,53.2,30.28,West,270,0.0,0.0,87,0.00,,,0.00,VWS V14.00,2013-08-19 09:02:00,
2013-08-19 05:07:00,56.8,53.0,30.28,West,268,0.0,0.0,87,0.00,,,0.00,VWS V14.00,2013-08-19 09:07:00,
2013-08-19 05:12:00,56.8,53.0,30.28,West,269,0.0,0.0,87,0.00,,,0.00,VWS V14.00,2013-08-19 09:12:00,
2013-08-19 05:18:00,56.8,53.3,30.28,West,269,0.0,0.0,88,0.00,,,0.00,VWS V14.00,2013-08-19 09:18:00,
2013-08-19 05:24:00,56.8,53.3,30.28,West,270,0.0,0.0,88,0.00,,,0.00,VWS V14.00,2013-08-19 09:24:00,
2013-08-19 05:29:00,56.7,53.2,30.28,West,268,0.0,0.0,88,0.00,,,0.00,VWS V14.00,2013-08-19 09:29:00,
2013-08-19 05:35:00,56.7,53.5,30.28,West,269,0.0,0.0,89,0.00,,,0.00,VWS V14.00,2013-08-19 09:35:00,
2013-08-19 05:40:00,56.7,53.5,30.28,West,269,0.0,0.0,89,0.00,,,0.00,VWS V14.00,2013-08-19 09:40:00,
2013-08-19 05:45:00,56.7,53.8,30.28,West,270,0.0,0.0,90,0.00,,,0.00,VWS V14.00,2013-08-19 09:45:00,
2013-08-19 05:50:00,56.7,53.8,30.28,West,269,0.0,0.0,90,0.00,,,0.00,VWS V14.00,2013-08-19 09:50:00,
2013-08-19 05:56:00,56.7,53.8,30.28,West,270,0.0,0.0,90,0.00,,,0.00,VWS V14.00,2013-08-19 09:56:00,
2013-08-19 06:01:00,56.7,53.8,30.28,West,269,0.0,0.0,90,0.00,,,0.00,VWS V14.00,2013-08-19 10:01:00,
2013-08-19 06:06:00,56.7,54.1,30.28,West,270,0.0,0.0,91,0.00,,,0.00,VWS V14.00,2013-08-19 10:06:00,
2013-08-19 06:11:00,56.5,53.9,30.28,West,269,0.0,0.0,91,0.00,,,0.00,VWS V14.00,2013-08-19 10:11:00,
2013-08-19 06:17:00,56.5,53.9,30.28,West,268,0.0,0.0,91,0.00,,,0.00,VWS V14.00,2013-08-19 10:17:00,
2013-08-19 06:22:00,56.5,53.9,30.28,West,269,0.0,0.0,91,0.00,,,0.00,VWS V14.00,2013-08-19 10:22:00,
2013-08-19 06:27:00,56.5,53.9,30.28,West,268,0.0,0.0,91,0.00,,,0.00,VWS V14.00,2013-08-19 10:27:00,
2013-08-19 06:33:00,56.5,53.9,30.28,West,270,0.0,0.0,91,0.00,,,0.00,VWS V14.00,2013-08-19 10:33:00,
2013-08-19 06:38:00,56.3,54.0,30.28,West,269,0.0,0.0,92,0.00,,,0.00,VWS V14.00,2013-08-19 10:38:00,
2013-08-19 06:44:00,56.3,53.7,30.28,West,269,0.0,0.0,91,0.00,,,0.00,VWS V14.00,2013-08-19 10:44:00,
2013-08-19 06:49:00,56.3,53.7,30.28,West,269,0.0,0.0,91,0.00,,,0.00,VWS V14.00,2013-08-19 10:49:00,
2013-08-19 06:54:00,56.1,53.5,30.28,West,269,0.0,0.0,91,0.00,,,0.00,VWS V14.00,2013-08-19 10:54:00,
2013-08-19 07:00:00,56.1,53.5,30.28,West,270,0.0,0.0,91,0.00,,,0.00,VWS V14.00,2013-08-19 11:00:00,
2013-08-19 07:06:00,55.9,53.4,30.28,West,269,0.0,0.0,91,0.00,,,0.00,VWS V14.00,2013-08-19 11:06:00,
2013-08-19 07:11:00,55.9,53.4,30.28,West,270,0.0,0.0,91,0.00,,,0.00,VWS V14.00,2013-08-19 11:11:00,
2013-08-19 07:17:00,55.9,53.4,30.28,West,270,0.0,0.0,91,0.00,,,0.00,VWS V14.00,2013-08-19 11:17:00,
2013-08-19 07:22:00,55.9,53.4,30.28,West,268,0.0,0.0,91,0.00,,,0.00,VWS V14.00,2013-08-19 11:22:00,
2013-08-19 07:27:00,55.8,53.2,30.28,West,270,0.0,0.0,91,0.00,,,0.00,VWS V14.00,2013-08-19 11:27:00,
2013-08-19 07:33:00,55.9,53.4,30.25,West,268,0.0,0.0,91,0.00,,,0.00,VWS V14.00,2013-08-19 11:33:00,
2013-08-19 07:38:00,55.9,53.4,30.25,West,268,0.0,0.0,91,0.00,,,0.00,VWS V14.00,2013-08-19 11:38:00,
2013-08-19 07:44:00,55.9,53.4,30.25,West,270,0.0,0.0,91,0.00,,,0.00,VWS V14.00,2013-08-19 11:44:00,
2013-08-19 07:49:00,56.3,54.0,30.28,West,269,0.0,0.0,92,0.00,,,0.00,VWS V14.00,2013-08-19 11:49:00,
2013-08-19 07:54:00,56.5,54.2,30.28,West,269,0.0,0.0,92,0.00,,,0.00,VWS V14.00,2013-08-19 11:54:00,
2013-08-19 07:59:00,56.5,54.2,30.28,West,270,0.0,0.0,92,0.00,,,0.00,VWS V14.00,2013-08-19 11:59:00,
2013-08-19 08:05:00,56.5,54.2,30.28,West,268,0.0,0.0,92,0.00,,,0.00,VWS V14.00,2013-08-19 12:05:00,
2013-08-19 08:10:00,56.8,54.8,30.28,West,270,0.0,0.0,93,0.00,,,0.00,VWS V14.00,2013-08-19 12:10:00,
2013-08-19 08:16:00,57.2,55.2,30.28,West,268,0.0,0.0,93,0.00,,,0.00,VWS V14.00,2013-08-19 12:16:00,
2013-08-19 08:21:00,57.6,55.8,30.28,West,268,0.0,0.0,94,0.00,,,0.00,VWS V14.00,2013-08-19 12:21:00,
2013-08-19 08:26:00,57.9,56.2,30.28,West,268,0.0,0.0,94,0.00,,,0.00,VWS V14.00,2013-08-19 12:26:00,
2013-08-19 08:31:00,58.1,56.4,30.28,West,268,0.0,0.0,94,0.00,,,0.00,VWS V14.00,2013-08-19 12:31:00,
2013-08-19 08:37:00,58.5,56.7,30.28,West,268,0.0,0.0,94,0.00,,,0.00,VWS V14.00,2013-08-19 12:37:00,
2013-08-19 08:42:00,58.8,57.4,30.28,West,268,0.0,0.0,95,0.00,,,0.00,VWS V14.00,2013-08-19 12:42:00,
2013-08-19 08:47:00,59.2,57.8,30.28,West,270,0.0,0.0,95,0.00,,,0.00,VWS V14.00,2013-08-19 12:47:00,
2013-08-19 08:53:00,59.4,57.9,30.28,West,270,0.0,0.0,95,0.00,,,0.00,VWS V14.00,2013-08-19 12:53:00,
2013-08-19 08:59:00,60.1,58.9,30.28,West,268,0.0,0.0,96,0.00,,,0.00,VWS V14.00,2013-08-19 12:59:00,
2013-08-19 09:04:00,60.4,59.3,30.28,West,269,0.0,0.0,96,0.00,,,0.00,VWS V14.00,2013-08-19 13:04:00,
2013-08-19 09:09:00,60.6,59.5,30.28,West,268,0.0,0.0,96,0.00,,,0.00,VWS V14.00,2013-08-19 13:09:00,
2013-08-19 09:15:00,61.0,59.8,30.28,West,270,0.0,0.0,96,0.00,,,0.00,VWS V14.00,2013-08-19 13:15:00,
2013-08-19 09:20:00,61.5,60.4,30.28,SW,223,0.0,0.0,96,0.00,,,0.00,VWS V14.00,2013-08-19 13:20:00,
2013-08-19 09:25:00,62.2,61.1,30.28,SW,223,0.0,0.0,96,0.00,,,0.00,VWS V14.00,2013-08-19 13:25:00,
2013-08-19 09:30:00,62.6,61.2,30.28,SW,222,2.7,2.7,95,0.00,,,0.00,VWS V14.00,2013-08-19 13:30:00,
2013-08-19 09:37:00,63.1,61.7,30.28,SW,222,3.6,3.6,95,0.00,,,0.00,VWS V14.00,2013-08-19 13:37:00,
2013-08-19 09:42:00,63.5,62.0,30.28,SSE,155,2.2,2.2,95,0.00,,,0.00,VWS V14.00,2013-08-19 13:42:00,
2013-08-19 09:47:00,64.4,62.3,30.28,SSW,206,2.2,2.7,93,0.00,,,0.00,VWS V14.00,2013-08-19 13:47:00,
2013-08-19 09:53:00,65.3,62.9,30.28,SSW,207,2.2,2.2,92,0.00,,,0.00,VWS V14.00,2013-08-19 13:53:00,
2013-08-19 09:58:00,65.8,62.8,30.28,SSW,210,0.0,2.7,90,0.00,,,0.00,VWS V14.00,2013-08-19 13:58:00,
2013-08-19 10:03:00,66.4,62.4,30.28,SW,236,2.2,2.2,87,0.00,,,0.00,VWS V14.00,2013-08-19 14:03:00,
2013-08-19 10:08:00,66.9,62.3,30.25,SW,220,2.2,2.7,85,0.00,,,0.00,VWS V14.00,2013-08-19 14:08:00,
2013-08-19 10:14:00,67.5,61.4,30.25,SW,221,2.2,2.7,81,0.00,,,0.00,VWS V14.00,2013-08-19 14:14:00,
2013-08-19 10:19:00,67.8,61.4,30.25,SSW,211,3.1,3.6,80,0.00,,,0.00,VWS V14.00,2013-08-19 14:19:00,
2013-08-19 10:24:00,68.5,61.0,30.25,SW,217,2.7,2.7,77,0.00,,,0.00,VWS V14.00,2013-08-19 14:24:00,
2013-08-19 10:29:00,68.9,60.3,30.25,SSW,193,2.7,2.7,74,0.00,,,0.00,VWS V14.00,2013-08-19 14:29:00,
2013-08-19 10:34:00,69.3,60.2,30.25,WSW,253,3.6,3.6,73,0.00,,,0.00,VWS V14.00,2013-08-19 14:34:00,
2013-08-19 10:40:00,69.8,60.0,30.25,SW,221,3.1,3.1,71,0.00,,,0.00,VWS V14.00,2013-08-19 14:40:00,
2013-08-19 10:46:00,70.2,60.3,30.25,West,273,0.0,0.0,71,0.00,,,0.00,VWS V14.00,2013-08-19 14:46:00,
2013-08-19 10:51:00,70.5,60.3,30.25,SW,227,2.7,3.6,70,0.00,,,0.00,VWS V14.00,2013-08-19 14:51:00,
2013-08-19 10:57:00,70.9,59.8,30.25,West,281,3.1,3.1,68,0.00,,,0.00,VWS V14.00,2013-08-19 14:57:00,
2013-08-19 11:03:00,71.4,59.9,30.25,SSW,208,0.0,0.0,67,0.00,,,0.00,VWS V14.00,2013-08-19 15:03:00,
2013-08-19 11:08:00,71.8,59.4,30.25,SSW,211,4.0,7.6,65,0.00,,,0.00,VWS V14.00,2013-08-19 15:08:00,
2013-08-19 11:14:00,72.1,59.3,30.25,SW,229,0.0,2.2,64,0.00,,,0.00,VWS V14.00,2013-08-19 15:14:00,
2013-08-19 11:19:00,72.5,59.2,30.25,SSW,200,3.6,3.6,63,0.00,,,0.00,VWS V14.00,2013-08-19 15:19:00,
2013-08-19 11:24:00,72.7,59.4,30.25,WSW,244,3.1,3.1,63,0.00,,,0.00,VWS V14.00,2013-08-19 15:24:00,
2013-08-19 11:30:00,73.2,59.4,30.25,SSW,208,4.9,6.3,62,0.00,,,0.00,VWS V14.00,2013-08-19 15:30:00,
2013-08-19 11:36:00,73.2,59.4,30.25,SW,220,0.0,0.0,62,0.00,,,0.00,VWS V14.00,2013-08-19 15:36:00,
2013-08-19 11:41:00,73.6,59.3,30.25,West,277,3.1,5.4,61,0.00,,,0.00,VWS V14.00,2013-08-19 15:41:00,
2013-08-19 11:46:00,73.9,58.7,30.25,SW,225,2.2,2.2,59,0.00,,,0.00,VWS V14.00,2013-08-19 15:46:00,
2013-08-19 11:52:00,74.5,59.7,30.25,WSW,245,3.6,3.6,60,0.00,,,0.00,VWS V14.00,2013-08-19 15:52:00,
2013-08-19 11:57:00,74.8,59.6,30.25,West,275,3.1,3.1,59,0.00,,,0.00,VWS V14.00,2013-08-19 15:57:00,
2013-08-19 12:02:00,75.0,59.7,30.25,WNW,299,3.1,5.4,59,0.00,,,0.00,VWS V14.00,2013-08-19 16:02:00,
2013-08-19 12:08:00,75.4,59.6,30.25,WSW,258,2.7,2.7,58,0.00,,,0.00,VWS V14.00,2013-08-19 16:08:00,
2013-08-19 12:13:00,75.9,60.1,30.25,NW,325,2.2,4.0,58,0.00,,,0.00,VWS V14.00,2013-08-19 16:13:00,
2013-08-19 12:18:00,76.1,59.8,30.25,SSW,201,5.8,5.8,57,0.00,,,0.00,VWS V14.00,2013-08-19 16:18:00,
2013-08-19 12:24:00,76.3,59.5,30.25,West,259,2.7,3.1,56,0.00,,,0.00,VWS V14.00,2013-08-19 16:24:00,
2013-08-19 12:31:00,76.6,59.3,30.25,WSW,241,3.1,5.4,55,0.00,,,0.00,VWS V14.00,2013-08-19 16:31:00,
2013-08-19 12:36:00,76.8,58.4,30.28,WSW,238,2.7,4.0,53,0.00,,,0.00,VWS V14.00,2013-08-19 16:36:00,
2013-08-19 12:42:00,77.2,58.2,30.28,WSW,253,3.6,3.6,52,0.00,,,0.00,VWS V14.00,2013-08-19 16:42:00,
2013-08-19 12:47:00,77.4,57.8,30.28,WNW,290,4.9,4.9,51,0.00,,,0.00,VWS V14.00,2013-08-19 16:47:00,
2013-08-19 12:53:00,77.7,58.2,30.28,SSE,166,3.1,3.1,51,0.00,,,0.00,VWS V14.00,2013-08-19 16:53:00,
2013-08-19 12:59:00,78.8,58.0,30.25,South,188,3.6,5.4,49,0.00,,,0.00,VWS V14.00,2013-08-19 16:59:00,
2013-08-19 13:04:00,79.3,58.0,30.25,South,189,4.9,9.2,48,0.00,,,0.00,VWS V14.00,2013-08-19 17:04:00,
2013-08-19 13:10:00,79.2,56.0,30.25,SSW,193,3.1,3.1,45,0.00,,,0.00,VWS V14.00,2013-08-19 17:10:00,
2013-08-19 13:17:00,79.0,56.5,30.25,SW,235,0.0,7.6,46,0.00,,,0.00,VWS V14.00,2013-08-19 17:17:00,
2013-08-19 13:22:00,79.0,56.5,30.25,SW,233,4.9,4.9,46,0.00,,,0.00,VWS V14.00,2013-08-19 17:22:00,
2013-08-19 13:28:00,79.2,56.0,30.25,WSW,253,5.4,6.3,45,0.00,,,0.00,VWS V14.00,2013-08-19 17:28:00,
2013-08-19 13:33:00,79.9,56.0,30.25,West,280,2.2,5.8,44,0.00,,,0.00,VWS V14.00,2013-08-19 17:33:00,
2013-08-19 13:38:00,80.1,56.2,30.25,WSW,257,3.1,3.1,44,0.00,,,0.00,VWS V14.00,2013-08-19 17:38:00,
2013-08-19 13:43:00,80.4,55.9,30.25,SW,218,4.9,4.9,43,0.00,,,0.00,VWS V14.00,2013-08-19 17:43:00,
2013-08-19 13:49:00,81.0,55.7,30.22,SW,219,3.6,3.6,42,0.00,,,0.00,VWS V14.00,2013-08-19 17:49:00,
2013-08-19 13:55:00,81.0,55.1,30.22,WNW,295,4.9,4.9,41,0.00,,,0.00,VWS V14.00,2013-08-19 17:55:00,
2013-08-19 14:00:00,81.0,55.1,30.22,NW,322,3.1,5.4,41,0.00,,,0.00,VWS V14.00,2013-08-19 18:00:00,
2013-08-19 14:05:00,81.0,55.1,30.22,NW,323,3.1,3.1,41,0.00,,,0.00,VWS V14.00,2013-08-19 18:05:00,
2013-08-19 14:11:00,81.7,55.7,30.22,SSW,195,5.8,5.8,41,0.00,,,0.00,VWS V14.00,2013-08-19 18:11:00,
2013-08-19 14:16:00,82.2,56.2,30.22,West,268,4.0,4.0,41,0.00,,,0.00,VWS V14.00,2013-08-19 18:16:00,
2013-08-19 14:21:00,82.0,55.4,30.22,West,260,2.7,2.7,40,0.00,,,0.00,VWS V14.00,2013-08-19 18:21:00,
2013-08-19 14:26:00,82.4,55.7,30.22,WSW,243,3.1,3.1,40,0.00,,,0.00,VWS V14.00,2013-08-19 18:26:00,
2013-08-19 14:32:00,82.8,55.3,30.22,WSW,257,5.4,5.4,39,0.00,,,0.00,VWS V14.00,2013-08-19 18:32:00,
2013-08-19 14:38:00,82.9,54.8,30.22,SSW,206,5.4,5.4,38,0.00,,,0.00,VWS V14.00,2013-08-19 18:38:00,
2013-08-19 14:44:00,83.7,55.4,30.22,WSW,249,6.3,8.3,38,0.00,,,0.00,VWS V14.00,2013-08-19 18:44:00,
2013-08-19 14:49:00,84.0,56.4,30.22,NW,310,2.7,2.7,39,0.00,,,0.00,VWS V14.00,2013-08-19 18:49:00,
2013-08-19 14:55:00,84.2,55.1,30.22,SW,228,2.2,2.2,37,0.00,,,0.00,VWS V14.00,2013-08-19 18:55:00,
2013-08-19 15:00:00,84.7,54.1,30.22,SW,227,5.8,7.2,35,0.00,,,0.00,VWS V14.00,2013-08-19 19:00:00,
2013-08-19 15:05:00,85.3,54.6,30.22,SSW,207,4.0,4.0,35,0.00,,,0.00,VWS V14.00,2013-08-19 19:05:00,
2013-08-19 15:10:00,85.8,55.0,30.22,WNW,282,3.1,5.4,35,0.00,,,0.00,VWS V14.00,2013-08-19 19:10:00,
2013-08-19 15:16:00,86.0,54.4,30.22,SW,214,2.7,4.0,34,0.00,,,0.00,VWS V14.00,2013-08-19 19:16:00,
2013-08-19 15:21:00,86.2,53.7,30.22,SSW,198,4.0,4.0,33,0.00,,,0.00,VWS V14.00,2013-08-19 19:21:00,
2013-08-19 15:27:00,86.5,54.0,30.22,North,350,5.8,5.8,33,0.00,,,0.00,VWS V14.00,2013-08-19 19:27:00,
2013-08-19 15:32:00,86.9,54.4,30.22,NNW,342,6.3,6.3,33,0.00,,,0.00,VWS V14.00,2013-08-19 19:32:00,
2013-08-19 15:38:00,87.1,53.7,30.22,SSW,210,2.7,3.1,32,0.00,,,0.00,VWS V14.00,2013-08-19 19:38:00,
2013-08-19 15:43:00,87.1,53.7,30.22,WNW,290,0.0,3.6,32,0.00,,,0.00,VWS V14.00,2013-08-19 19:43:00,
2013-08-19 15:48:00,87.4,54.0,30.22,WSW,238,5.8,7.6,32,0.00,,,0.00,VWS V14.00,2013-08-19 19:48:00,
2013-08-19 15:54:00,87.4,53.1,30.19,WSW,253,7.2,7.2,31,0.00,,,0.00,VWS V14.00,2013-08-19 19:54:00,
2013-08-19 15:59:00,87.4,53.1,30.19,SW,227,4.0,5.8,31,0.00,,,0.00,VWS V14.00,2013-08-19 19:59:00,
2013-08-19 16:05:00,87.6,53.3,30.19,WSW,241,7.6,8.1,31,0.00,,,0.00,VWS V14.00,2013-08-19 20:05:00,
2013-08-19 16:10:00,87.4,54.0,30.22,West,271,3.6,4.9,32,0.00,,,0.00,VWS V14.00,2013-08-19 20:10:00,
2013-08-19 16:15:00,87.8,53.4,30.19,WSW,252,6.3,6.3,31,0.00,,,0.00,VWS V14.00,2013-08-19 20:15:00,
2013-08-19 16:20:00,87.8,52.5,30.19,SSW,206,7.2,7.2,30,0.00,,,0.00,VWS V14.00,2013-08-19 20:20:00,
2013-08-19 16:25:00,87.6,52.4,30.19,SSW,192,6.3,7.6,30,0.00,,,0.00,VWS V14.00,2013-08-19 20:25:00,
2013-08-19 16:31:00,87.6,53.3,30.19,SW,217,6.3,7.6,31,0.00,,,0.00,VWS V14.00,2013-08-19 20:31:00,
2013-08-19 16:37:00,87.4,54.0,30.19,WSW,244,3.6,3.6,32,0.00,,,0.00,VWS V14.00,2013-08-19 20:37:00,
2013-08-19 16:43:00,87.4,53.1,30.19,SW,216,5.4,7.6,31,0.00,,,0.00,VWS V14.00,2013-08-19 20:43:00,
2013-08-19 16:48:00,87.6,53.3,30.19,SW,231,4.9,6.3,31,0.00,,,0.00,VWS V14.00,2013-08-19 20:48:00,
2013-08-19 16:53:00,87.4,53.1,30.22,SSW,211,5.4,5.4,31,0.00,,,0.00,VWS V14.00,2013-08-19 20:53:00,
2013-08-19 16:58:00,87.4,54.0,30.22,SSW,208,5.4,8.1,32,0.00,,,0.00,VWS V14.00,2013-08-19 20:58:00,
2013-08-19 17:03:00,87.3,53.0,30.19,WNW,298,4.9,4.9,31,0.00,,,0.00,VWS V14.00,2013-08-19 21:03:00,
2013-08-19 17:08:00,87.3,53.0,30.19,SSW,205,6.3,7.2,31,0.00,,,0.00,VWS V14.00,2013-08-19 21:08:00,
2013-08-19 17:15:00,87.1,52.8,30.19,SSW,209,8.7,8.7,31,0.00,,,0.00,VWS V14.00,2013-08-19 21:15:00,
2013-08-19 17:20:00,87.1,52.8,30.19,NNW,327,3.1,5.8,31,0.00,,,0.00,VWS V14.00,2013-08-19 21:20:00,
2013-08-19 17:26:00,87.1,51.9,30.19,WNW,299,4.9,5.4,30,0.00,,,0.00,VWS V14.00,2013-08-19 21:26:00,
2013-08-19 17:31:00,86.9,52.7,30.19,WSW,243,3.6,6.3,31,0.00,,,0.00,VWS V14.00,2013-08-19 21:31:00,
2013-08-19 17:36:00,86.9,52.7,30.19,WSW,251,6.3,6.3,31,0.00,,,0.00,VWS V14.00,2013-08-19 21:36:00,
2013-08-19 17:41:00,86.7,52.5,30.19,SW,220,4.0,4.9,31,0.00,,,0.00,VWS V14.00,2013-08-19 21:41:00,
2013-08-19 17:46:00,86.7,52.5,30.22,WSW,248,3.6,3.6,31,0.00,,,0.00,VWS V14.00,2013-08-19 21:46:00,
2013-08-19 17:51:00,86.5,52.3,30.22,SW,236,7.6,7.6,31,0.00,,,0.00,VWS V14.00,2013-08-19 21:51:00,
2013-08-19 17:56:00,86.5,52.3,30.22,West,259,4.9,4.9,31,0.00,,,0.00,VWS V14.00,2013-08-19 21:56:00,
2013-08-19 18:02:00,86.0,51.9,30.22,WSW,255,7.2,7.2,31,0.00,,,0.00,VWS V14.00,2013-08-19 22:02:00,
2013-08-19 18:08:00,85.8,51.7,30.19,WSW,257,4.9,5.4,31,0.00,,,0.00,VWS V14.00,2013-08-19 22:08:00,
2013-08-19 18:13:00,85.5,51.4,30.19,West,264,6.3,9.6,31,0.00,,,0.00,VWS V14.00,2013-08-19 22:13:00,
2013-08-19 18:19:00,85.3,52.1,30.19,SSW,210,4.0,4.0,32,0.00,,,0.00,VWS V14.00,2013-08-19 22:19:00,
2013-08-19 18:25:00,85.3,52.1,30.22,SSW,209,6.3,6.3,32,0.00,,,0.00,VWS V14.00,2013-08-19 22:25:00,
2013-08-19 18:30:00,85.1,52.0,30.22,WNW,299,4.0,4.0,32,0.00,,,0.00,VWS V14.00,2013-08-19 22:30:00,
2013-08-19 18:36:00,84.7,51.6,30.22,SW,229,5.4,5.4,32,0.00,,,0.00,VWS V14.00,2013-08-19 22:36:00,
2013-08-19 18:42:00,84.4,51.3,30.22,SW,214,5.8,5.8,32,0.00,,,0.00,VWS V14.00,2013-08-19 22:42:00,
2013-08-19 18:47:00,84.4,51.3,30.22,WSW,253,3.1,3.1,32,0.00,,,0.00,VWS V14.00,2013-08-19 22:47:00,
2013-08-19 18:52:00,84.0,51.8,30.22,SSW,211,5.8,7.6,33,0.00,,,0.00,VWS V14.00,2013-08-19 22:52:00,
2013-08-19 18:57:00,83.7,51.5,30.22,SW,229,4.0,4.0,33,0.00,,,0.00,VWS V14.00,2013-08-19 22:57:00,
2013-08-19 19:02:00,83.7,52.3,30.22,WSW,246,4.0,5.8,34,0.00,,,0.00,VWS V14.00,2013-08-19 23:02:00,
2013-08-19 19:07:00,83.5,52.2,30.22,SSW,208,0.0,6.3,34,0.00,,,0.00,VWS V14.00,2013-08-19 23:07:00,
2013-08-19 19:13:00,83.3,52.0,30.19,SSW,198,2.7,2.7,34,0.00,,,0.00,VWS V14.00,2013-08-19 23:13:00,
2013-08-19 19:19:00,83.1,51.9,30.19,SSW,201,3.6,3.6,34,0.00,,,0.00,VWS V14.00,2013-08-19 23:19:00,
2013-08-19 19:24:00,82.6,52.2,30.19,SSW,213,4.0,4.0,35,0.00,,,0.00,VWS V14.00,2013-08-19 23:24:00,
2013-08-19 19:29:00,82.2,52.6,30.19,West,261,3.1,3.1,36,0.00,,,0.00,VWS V14.00,2013-08-19 23:29:00,
2013-08-19 19:35:00,81.9,52.3,30.19,WSW,256,2.2,3.1,36,0.00,,,0.00,VWS V14.00,2013-08-19 23:35:00,
2013-08-19 19:40:00,81.5,52.7,30.19,West,266,0.0,0.0,37,0.00,,,0.00,VWS V14.00,2013-08-19 23:40:00,
2013-08-19 19:45:00,81.3,52.6,30.19,SW,235,3.1,3.1,37,0.00,,,0.00,VWS V14.00,2013-08-19 23:45:00,
2013-08-19 19:50:00,81.3,53.3,30.19,SW,219,3.1,3.1,38,0.00,,,0.00,VWS V14.00,2013-08-19 23:50:00,
2013-08-19 19:55:00,81.1,53.2,30.19,SSW,205,3.1,3.1,38,0.00,,,0.00,VWS V14.00,2013-08-19 23:55:00,
2013-08-19 20:00:00,80.6,53.4,30.19,SW,218,2.7,2.7,39,0.00,,,0.00,VWS V14.00,2013-08-20 00:00:00,
2013-08-19 20:06:00,80.1,53.6,30.19,SSW,199,2.7,2.7,40,0.00,,,0.00,VWS V14.00,2013-08-20 00:06:00,
2013-08-19 20:11:00,79.3,53.6,30.19,SSW,203,3.1,3.1,41,0.00,,,0.00,VWS V14.00,2013-08-20 00:11:00,
2013-08-19 20:17:00,78.8,53.1,30.19,SSW,195,0.0,2.7,41,0.00,,,0.00,VWS V14.00,2013-08-20 00:17:00,
2013-08-19 20:22:00,78.3,53.3,30.19,SW,217,0.0,2.7,42,0.00,,,0.00,VWS V14.00,2013-08-20 00:22:00,
2013-08-19 20:28:00,77.9,53.6,30.19,SW,216,2.2,3.6,43,0.00,,,0.00,VWS V14.00,2013-08-20 00:28:00,
2013-08-19 20:33:00,77.5,53.3,30.19,SW,216,0.0,0.0,43,0.00,,,0.00,VWS V14.00,2013-08-20 00:33:00,
2013-08-19 20:38:00,77.2,53.6,30.19,SW,216,0.0,0.0,44,0.00,,,0.00,VWS V14.00,2013-08-20 00:38:00,
2013-08-19 20:43:00,76.8,53.9,30.19,SW,216,0.0,0.0,45,0.00,,,0.00,VWS V14.00,2013-08-20 00:43:00,
2013-08-19 20:48:00,76.6,54.3,30.19,SW,216,0.0,0.0,46,0.00,,,0.00,VWS V14.00,2013-08-20 00:48:00,
2013-08-19 20:54:00,76.1,53.8,30.19,SW,216,0.0,0.0,46,0.00,,,0.00,VWS V14.00,2013-08-20 00:54:00,
2013-08-19 20:59:00,75.6,55.1,30.19,SW,217,0.0,0.0,49,0.00,,,0.00,VWS V14.00,2013-08-20 00:59:00,
2013-08-19 21:04:00,75.0,56.2,30.19,SW,216,0.0,0.0,52,0.00,,,0.00,VWS V14.00,2013-08-20 01:04:00,
2013-08-19 21:10:00,74.7,57.4,30.19,SW,217,0.0,0.0,55,0.00,,,0.00,VWS V14.00,2013-08-20 01:10:00,
2013-08-19 21:16:00,74.1,57.4,30.19,SW,216,0.0,0.0,56,0.00,,,0.00,VWS V14.00,2013-08-20 01:16:00,
2013-08-19 21:21:00,73.8,57.6,30.19,SW,216,0.0,0.0,57,0.00,,,0.00,VWS V14.00,2013-08-20 01:21:00,
2013-08-19 21:26:00,73.4,57.7,30.19,SW,216,0.0,0.0,58,0.00,,,0.00,VWS V14.00,2013-08-20 01:26:00,
2013-08-19 21:31:00,73.0,57.4,30.19,SW,216,0.0,0.0,58,0.00,,,0.00,VWS V14.00,2013-08-20 01:31:00,
2013-08-19 21:37:00,72.5,57.8,30.19,SW,216,0.0,0.0,60,0.00,,,0.00,VWS V14.00,2013-08-20 01:37:00,
2013-08-19 21:42:00,72.1,58.0,30.19,SW,216,0.0,0.0,61,0.00,,,0.00,VWS V14.00,2013-08-20 01:42:00,
2013-08-19 21:47:00,71.8,57.6,30.19,SW,216,0.0,0.0,61,0.00,,,0.00,VWS V14.00,2013-08-20 01:47:00,
2013-08-19 21:52:00,71.6,57.9,30.19,SW,216,0.0,0.0,62,0.00,,,0.00,VWS V14.00,2013-08-20 01:52:00,
2013-08-19 21:57:00,71.2,58.5,30.19,SW,217,0.0,0.0,64,0.00,,,0.00,VWS V14.00,2013-08-20 01:57:00,
2013-08-19 22:03:00,71.1,58.3,30.19,SW,216,0.0,0.0,64,0.00,,,0.00,VWS V14.00,2013-08-20 02:03:00,
2013-08-19 22:08:00,70.7,58.8,30.19,SW,217,0.0,0.0,66,0.00,,,0.00,VWS V14.00,2013-08-20 02:08:00,
2013-08-19 22:13:00,70.3,58.5,30.19,SW,216,0.0,0.0,66,0.00,,,0.00,VWS V14.00,2013-08-20 02:13:00,
2013-08-19 22:19:00,70.3,58.5,30.19,SW,217,0.0,0.0,66,0.00,,,0.00,VWS V14.00,2013-08-20 02:19:00,
2013-08-19 22:24:00,69.8,57.9,30.19,SW,216,0.0,0.0,66,0.00,,,0.00,VWS V14.00,2013-08-20 02:24:00,
2013-08-19 22:29:00,69.6,58.2,30.22,SW,216,0.0,0.0,67,0.00,,,0.00,VWS V14.00,2013-08-20 02:29:00,
2013-08-19 22:34:00,69.3,57.8,30.19,SW,216,0.0,0.0,67,0.00,,,0.00,VWS V14.00,2013-08-20 02:34:00,
2013-08-19 22:40:00,69.1,58.1,30.19,SW,216,0.0,0.0,68,0.00,,,0.00,VWS V14.00,2013-08-20 02:40:00,
2013-08-19 22:45:00,68.9,58.3,30.19,SW,216,0.0,0.0,69,0.00,,,0.00,VWS V14.00,2013-08-20 02:45:00,
2013-08-19 22:51:00,68.7,58.5,30.19,SW,216,0.0,0.0,70,0.00,,,0.00,VWS V14.00,2013-08-20 02:51:00,
2013-08-19 22:56:00,68.4,58.6,30.19,SW,216,0.0,0.0,71,0.00,,,0.00,VWS V14.00,2013-08-20 02:56:00,
2013-08-19 23:01:00,68.2,58.4,30.19,SW,217,0.0,0.0,71,0.00,,,0.00,VWS V14.00,2013-08-20 03:01:00,
2013-08-19 23:06:00,68.0,58.3,30.19,SW,216,0.0,0.0,71,0.00,,,0.00,VWS V14.00,2013-08-20 03:06:00,
2013-08-19 23:11:00,67.8,58.5,30.19,SW,217,0.0,0.0,72,0.00,,,0.00,VWS V14.00,2013-08-20 03:11:00,
2013-08-19 23:16:00,67.8,58.5,30.19,SW,217,0.0,0.0,72,0.00,,,0.00,VWS V14.00,2013-08-20 03:16:00,
2013-08-19 23:22:00,67.5,58.5,30.19,SW,216,0.0,0.0,73,0.00,,,0.00,VWS V14.00,2013-08-20 03:22:00,
2013-08-19 23:27:00,67.3,58.3,30.19,SW,215,0.0,0.0,73,0.00,,,0.00,VWS V14.00,2013-08-20 03:27:00,
2013-08-19 23:32:00,67.1,58.5,30.19,SW,216,0.0,0.0,74,0.00,,,0.00,VWS V14.00,2013-08-20 03:32:00,
2013-08-19 23:37:00,66.9,58.4,30.19,SW,216,0.0,0.0,74,0.00,,,0.00,VWS V14.00,2013-08-20 03:37:00,
2013-08-19 23:43:00,66.7,58.6,30.19,SW,216,0.0,0.0,75,0.00,,,0.00,VWS V14.00,2013-08-20 03:43:00,
2013-08-19 23:48:00,66.6,58.4,30.19,SW,215,0.0,0.0,75,0.00,,,0.00,VWS V14.00,2013-08-20 03:48:00,
2013-08-19 23:54:00,66.4,58.2,30.19,SW,217,0.0,0.0,75,0.00,,,0.00,VWS V14.00,2013-08-20 03:54:00,
2013-08-19 23:59:00,66.2,58.0,30.19,SW,216,0.0,0.0,75,0.00,,,0.00,VWS V14.00,2013-08-20 03:59:00,